Theta_e
309 309 310 310 310 310 311 311 311 311 311 311 311 312 312 312 312 312 312 312 312 313 314 314 315 316 316 319 320 331 323 321 319 318 326 327 325 327 323 322 323 322 323 327 329 330 331
308 309 309 309 310 310 310 310 310 310 311 311 311 311 312 312 312 313 313 313 313 313 313 314 315 315 316 318 329 327 326 323 319 318 326 326 328 326 324 323 323 325 326 327 330 330 335
307 308 308 308 309 309 310 310 310 310 310 311 311 311 311 312 312 313 314 314 314 313 314 314 315 316 316 317 327 327 324 323 320 323 326 327 326 326 324 322 326 329 328 327 330 332 333
306 306 307 307 308 308 309 309 310 310 310 311 311 311 311 312 313 314 314 314 315 316 315 314 315 316 316 319 326 326 325 322 320 319 326 327 326 324 324 326 326 326 326 330 329 332 333
305 305 306 306 306 306 307 308 309 309 310 310 311 311 311 312 313 314 314 314 319 322 321 317 316 317 317 323 322 327 324 323 321 320 325 326 324 325 327 324 321 321 325 329 330 330 333
305 305 305 305 305 306 306 306 307 307 308 309 310 311 312 312 313 314 314 317 320 321 324 323 321 318 317 325 327 327 325 325 326 326 325 323 324 320 320 321 317 324 330 328 328 327 332
305 305 305 305 305 305 306 306 306 306 307 307 308 309 310 312 313 314 316 317 318 318 318 320 320 317 318 324 327 327 327 326 326 324 320 321 320 320 321 323 325 326 327 326 325 325 331
304 304 305 305 305 305 305 305 306 306 306 307 307 308 309 310 312 313 318 318 316 316 315 317 318 319 320 321 321 326 327 326 326 323 320 319 319 318 320 321 323 324 325 323 321 323 331
304 304 304 304 305 305 305 305 305 305 306 306 307 307 308 309 310 312 318 317 317 317 314 317 317 318 319 321 321 325 327 326 324 322 321 320 322 320 322 323 323 322 322 321 321 320 328
304 304 304 304 305 305 305 305 305 305 306 306 307 307 308 308 309 311 317 317 318 318 310 313 317 318 317 321 321 326 326 325 323 323 321 322 322 324 324 324 322 324 320 321 321 321 319
304 304 304 304 305 305 305 305 305 305 306 306 306 307 307 308 308 311 316 318 319 318 314 318 319 319 318 321 323 322 326 325 322 323 321 321 325 325 326 326 322 325 322 321 322 322 323
303 304 304 305 305 305 305 305 305 306 306 306 306 306 307 307 308 309 316 318 317 309 312 318 319 318 318 320 320 324 324 325 324 322 322 322 323 324 323 325 324 325 321 317 316 316 320
302 304 305 305 305 305 305 305 305 306 307 307 307 307 307 307 308 309 315 316 309 310 314 318 318 316 317 318 319 324 322 322 323 323 323 321 322 322 324 324 323 320 318 319 321 319 319
300 301 303 304 305 304 304 304 304 305 307 308 307 306 307 307 307 313 316 310 310 311 313 315 316 316 318 317 318 322 322 323 322 320 321 323 322 324 324 323 323 320 319 319 322 321 322
300 301 300 302 304 302 302 303 303 305 306 307 306 306 307 307 308 314 315 308 307 310 316 315 315 315 315 316 318 319 321 322 322 320 322 323 324 324 325 323 323 322 320 318 317 316 321
300 301 299 300 301 301 301 301 302 305 306 305 306 307 311 307 307 313 309 308 309 313 314 314 316 316 316 316 317 317 318 319 321 320 321 321 323 322 324 324 323 323 319 321 316 322 324
299 301 300 299 300 300 300 301 302 305 307 306 306 315 314 308 308 314 308 308 313 314 313 313 315 316 316 316 316 316 316 318 321 321 320 318 320 321 323 323 323 320 320 316 316 317 321
300 301 300 300 300 300 300 300 301 305 307 307 310 311 312 308 310 306 309 310 313 313 312 313 314 314 316 315 315 316 316 317 319 318 321 318 316 320 321 320 322 321 321 317 320 321 319
300 300 301 300 300 300 300 300 301 305 309 312 313 313 309 313 306 307 308 312 313 313 314 314 314 314 314 315 316 314 316 318 318 317 319 318 319 321 320 318 322 325 320 316 314 316 324
298 299 299 299 299 299 299 299 300 304 309 313 314 312 314 313 313 312 316 317 317 318 315 315 314 314 314 314 312 315 316 317 318 318 326 319 314 319 319 319 321 328 327 320 318 320 319
298 297 297 297 298 297 297 298 299 303 307 312 313 309 310 311 311 311 312 315 319 319 319 316 317 318 320 317 314 314 314 315 318 321 321 318 322 318 318 319 327 330 330 323 325 323 329
297 296 295 296 296 296 296 296 298 302 305 310 312 310 309 309 309 309 311 316 318 318 320 319 322 322 321 314 315 317 315 316 319 319 323 321 321 328 328 329 329 332 331 328 329 325 323
296 295 295 295 296 298 296 296 297 300 305 306 306 307 309 306 308 308 310 315 317 317 319 321 321 321 321 317 322 322 321 319 314 321 322 326 322 321 324 328 327 325 330 331 332 330 330
297 295 294 298 299 297 295 295 296 299 300 304 305 308 309 304 308 310 311 312 315 314 317 318 320 322 322 322 322 320 319 317 314 317 321 327 323 320 323 325 328 322 325 329 335 340 337
297 297 295 296 295 295 295 295 295 298 299 302 303 305 307 304 307 308 310 310 312 312 314 318 320 321 321 321 317 318 316 318 320 317 317 320 326 330 327 325 326 331 333 340 334 335 334
298 297 296 295 296 296 295 295 294 294 298 302 302 303 304 305 303 308 308 310 309 309 312 316 319 318 324 312 316 320 319 317 320 321 320 321 322 328 328 331 332 327 336 340 338 334 333
296 295 295 295 296 295 295 295 295 294 294 300 302 302 301 303 303 308 306 308 309 309 310 313 313 320 323 311 315 317 319 319 322 320 321 317 320 322 329 332 330 330 338 338 334 331 338
295 295 294 296 296 294 295 295 295 295 294 295 301 301 300 300 300 302 304 307 308 308 310 311 314 316 317 320 319 315 316 316 323 329 331 320 320 322 324 329 330 335 337 335 331 341 339
295 295 294 295 295 296 297 295 294 294 295 294 298 300 300 300 300 300 300 302 304 305 306 308 314 316 320 315 315 316 322 320 323 329 325 329 324 321 322 324 331 336 337 339 341 341 337
Wind_Speed
6 6 6 7 8 7 7 7 7 8 9 9 9 10 11 11 11 11 11 11 12 11 10 10 10 9 6 3 0 1 3 6 8 12 13 9 5 1 1 2 5 2 4 11 19 22 11
6 7 6 7 7 8 8 9 9 9 10 10 11 11 12 12 12 12 12 13 13 12 11 10 9 8 5 2 3 2 3 4 5 11 15 9 2 2 4 2 2 5 11 16 15 10 2
7 7 6 7 7 8 9 9 10 11 11 12 11 12 13 13 13 13 14 15 15 14 12 10 8 7 6 5 4 4 3 4 5 12 13 8 1 4 4 6 4 7 7 7 6 5 2
7 7 7 6 6 7 9 10 10 11 12 13 13 13 14 14 14 14 15 17 16 14 10 9 8 6 4 4 5 6 4 7 8 13 10 4 4 4 2 4 6 3 3 5 4 6 3
8 8 7 7 7 7 8 10 11 12 13 14 14 14 14 14 14 14 16 17 15 10 7 7 5 3 3 3 7 9 6 6 9 12 8 3 2 1 2 4 5 7 2 2 8 6 1
9 9 9 9 8 8 9 10 11 12 14 15 15 15 14 14 14 14 16 15 10 8 4 5 7 3 5 2 3 12 9 10 8 10 4 2 1 3 4 4 4 2 0 3 5 6 1
9 10 10 10 10 10 11 11 12 13 14 15 15 15 14 14 12 12 13 10 5 2 6 5 3 3 3 4 5 8 14 15 7 4 3 2 3 6 8 5 2 1 2 3 5 7 2
9 9 10 11 11 12 13 13 13 14 14 14 15 15 14 13 9 8 8 5 8 7 10 14 16 21 18 11 1 8 16 10 6 4 3 5 5 8 3 3 4 2 2 6 8 2 2
9 10 11 12 13 14 14 15 15 16 16 15 16 15 14 10 7 4 2 5 5 8 4 10 9 12 17 16 8 12 21 11 5 5 5 5 1 8 4 4 4 3 4 4 6 5 2
13 11 11 12 13 14 16 17 17 17 17 16 16 15 14 8 2 4 5 1 4 8 5 6 4 2 10 9 4 12 20 10 3 10 7 4 4 4 1 3 6 2 5 3 5 1 2
14 13 13 13 14 15 15 17 18 18 17 17 17 16 13 8 5 2 6 4 4 4 3 1 1 2 11 13 7 11 21 10 8 6 6 6 2 3 2 4 6 7 2 3 2 2 3
16 14 14 14 15 15 16 17 18 18 18 17 16 17 14 10 6 5 7 3 2 5 6 4 2 2 4 3 4 5 8 7 3 5 0 5 2 3 6 3 6 5 3 7 5 3 3
16 14 15 15 15 16 17 18 18 19 19 18 15 15 15 10 1 6 9 5 4 3 5 5 3 4 3 3 2 3 6 6 6 4 2 4 5 5 8 4 1 4 6 3 4 4 5
17 15 15 15 16 17 17 18 19 20 19 19 16 15 14 9 6 9 9 4 4 2 5 5 4 3 2 3 5 3 7 5 2 5 3 2 8 3 3 8 7 4 7 5 4 3 4
16 16 15 15 16 18 18 19 20 21 20 19 16 13 9 6 12 13 9 3 7 5 3 6 4 6 5 4 3 3 7 7 8 9 8 5 5 4 3 4 7 3 3 3 7 3 2
16 18 17 15 15 17 19 20 21 21 20 19 15 5 1 6 15 15 4 4 3 4 4 4 2 2 4 5 3 3 6 3 6 10 6 5 4 4 3 0 2 4 6 3 2 4 3
15 17 18 17 16 16 18 20 22 23 20 16 8 2 3 13 19 9 4 6 4 4 7 4 1 2 2 3 1 2 3 2 3 4 11 7 5 5 4 3 7 2 2 5 5 4 6
16 18 18 18 17 17 17 19 21 24 22 16 4 3 9 20 4 2 3 5 2 2 3 3 0 2 1 3 3 2 3 4 3 1 7 6 5 4 10 5 1 3 5 6 5 4 2
16 17 19 19 18 18 17 17 18 21 21 17 4 4 9 7 3 1 4 3 2 1 1 2 2 1 2 2 3 3 2 1 4 2 5 7 2 2 9 6 1 4 4 4 5 3 6
18 17 18 20 19 18 17 15 15 17 16 12 3 2 3 2 2 2 2 1 1 3 3 4 3 2 2 3 3 4 3 3 13 5 8 7 3 7 7 8 3 4 4 5 6 4 4
19 17 18 19 18 19 17 14 13 13 11 9 5 2 1 1 3 3 2 5 2 4 6 6 2 4 2 2 3 4 3 5 7 4 1 4 5 4 5 4 4 3 5 6 4 5 5
18 17 17 18 18 18 17 15 11 10 7 6 3 2 1 0 3 0 2 2 2 3 1 2 3 6 3 5 0 3 5 3 5 5 4 2 1 2 3 2 8 5 6 7 5 4 3
16 17 16 17 17 18 17 15 11 8 6 5 4 3 2 2 2 2 1 0 1 2 3 6 4 2 3 3 14 22 19 20 11 5 2 4 2 3 3 3 0 2 6 6 4 4 6
15 16 14 16 15 16 16 15 11 7 7 6 6 3 2 2 1 1 2 3 2 3 3 9 8 2 4 22 19 6 10 16 12 11 5 2 3 2 3 2 2 6 3 4 4 1 2
14 14 14 13 14 14 15 14 12 6 5 4 6 3 2 1 2 5 1 3 8 6 4 5 6 6 17 12 2 3 3 1 5 7 7 5 5 2 4 4 5 1 3 2 2 3 2
15 14 15 14 13 12 13 13 13 8 2 1 3 4 1 0 4 1 2 2 1 3 5 5 7 12 8 2 2 4 4 5 4 2 5 4 2 4 3 4 6 6 1 6 2 3 3
15 15 13 12 12 11 11 11 11 9 4 2 3 3 2 3 3 6 3 2 1 1 2 5 10 6 9 3 1 3 3 2 2 5 4 1 3 5 3 3 6 3 10 8 5 6 1
14 12 11 11 11 11 11 11 10 10 7 2 4 5 4 4 10 10 9 8 4 2 2 5 4 3 4 3 1 2 1 1 2 1 1 5 5 3 2 2 5 7 7 4 2 1 8
12 10 10 10 10 11 11 10 10 10 9 5 4 8 8 8 9 12 17 15 17 12 6 3 2 2 1 3 0 0 1 2 1 2 2 1 3 3 6 5 4 7 8 10 7 5 6
Wind_Direction
336 335 335 332 331 332 329 326 325 329 328 328 326 325 324 324 326 329 329 327 325 324 326 324 332 339 356 341 40 87 137 160 174 175 170 172 177 224 348 315 340 195 289 300 298 303 272
337 328 331 329 328 327 324 321 322 321 319 320 321 319 318 319 321 323 326 324 319 319 315 313 320 328 332 286 140 128 182 169 179 177 176 173 206 332 305 306 101 299 290 290 302 303 319
335 327 331 332 325 322 320 319 319 318 318 314 315 314 315 316 318 320 324 322 317 312 305 302 306 313 285 255 179 149 151 169 173 176 180 186 282 319 323 324 346 310 327 345 355 359 287
341 335 330 328 321 322 317 315 315 316 316 313 311 312 310 312 314 318 324 320 316 310 298 291 293 302 262 202 199 184 168 178 177 177 187 193 309 295 242 319 354 27 53 11 316 338 18
7 1 349 348 329 325 317 312 314 312 310 310 310 310 309 310 311 316 325 319 320 317 306 285 282 273 246 221 206 179 164 174 177 170 184 231 307 312 324 68 10 12 259 332 317 350 290
11 13 11 6 355 348 335 317 312 311 309 308 309 308 307 308 311 317 331 321 318 307 313 287 255 278 207 117 158 181 165 159 150 170 194 211 136 64 34 74 220 189 308 326 272 294 310
14 9 5 3 358 352 347 337 325 317 314 311 308 307 306 307 312 322 337 341 329 290 297 243 228 246 240 157 167 178 176 161 143 152 141 52 83 216 220 181 145 9 233 257 249 262 275
13 7 359 353 351 346 344 338 332 328 322 318 312 310 309 309 312 325 355 55 30 317 307 282 263 250 238 243 316 185 183 168 159 168 118 24 246 223 175 172 213 231 317 283 288 306 138
12 2 356 352 346 340 336 333 330 328 323 321 316 318 314 317 305 292 43 54 360 334 274 289 247 241 233 230 221 191 178 176 138 145 182 166 229 121 162 200 186 223 190 245 223 332 38
4 358 353 350 344 339 334 330 327 324 323 320 316 318 319 332 277 234 194 175 321 334 34 276 261 262 183 161 219 198 184 160 160 189 160 226 251 225 182 250 157 279 202 232 271 45 254
359 355 352 350 346 341 336 330 327 324 322 318 318 314 316 321 286 196 199 204 292 326 351 269 225 124 168 175 149 190 192 183 164 172 120 247 205 148 165 214 176 233 121 217 258 140 80
3 358 355 351 349 346 343 337 331 326 322 317 315 311 308 306 298 226 203 147 238 41 254 359 109 144 125 237 155 105 164 181 177 137 306 233 244 207 211 213 187 279 98 43 49 78 39
2 357 353 352 348 349 347 343 339 334 324 315 312 307 300 292 276 189 189 169 52 161 320 328 352 7 158 192 204 118 148 162 166 113 307 316 242 229 202 250 28 95 64 347 2 16 209
358 354 353 349 348 348 345 341 341 341 332 318 315 305 289 273 215 186 174 62 176 246 260 305 352 314 170 152 200 112 120 176 223 92 108 147 324 194 161 191 176 172 150 153 198 199 246
357 353 353 347 348 347 344 342 342 345 340 328 325 310 288 238 193 185 174 109 205 205 301 337 324 63 356 11 117 121 179 195 200 163 172 162 269 289 215 185 145 173 181 173 106 3 53
356 356 353 349 349 349 348 347 344 349 347 337 336 329 96 171 175 179 89 223 232 226 324 10 58 38 23 336 81 146 172 217 214 184 151 204 293 247 284 85 45 168 154 88 9 140 212
351 352 353 350 350 351 351 352 349 350 354 346 345 101 24 150 160 167 167 221 254 261 39 45 30 327 307 321 13 188 206 323 171 162 182 150 154 250 33 226 193 118 177 57 120 117 161
356 355 348 348 349 350 352 353 352 353 358 360 31 54 129 141 91 61 157 197 258 292 345 352 119 247 266 9 329 308 234 211 56 193 143 205 156 220 220 258 231 203 197 144 129 228 106
351 351 347 345 346 349 351 355 354 356 2 7 35 78 154 45 116 292 292 277 269 337 297 36 314 183 14 18 347 247 265 274 42 344 181 176 225 355 342 349 282 199 162 114 112 85 184
348 343 341 342 343 349 349 355 355 357 2 9 10 58 109 216 66 136 20 307 298 300 247 224 249 55 358 329 215 292 307 308 350 335 314 140 147 173 189 204 168 154 169 162 135 116 171
344 346 343 341 343 349 349 355 355 360 2 11 20 63 74 258 5 40 10 355 358 10 352 31 83 67 14 280 308 231 255 315 326 6 80 137 204 197 248 225 192 222 188 170 146 157 148
344 346 354 352 351 353 350 355 1 3 5 27 39 39 30 47 323 123 12 24 71 330 304 343 54 316 277 213 147 289 7 245 240 319 8 316 209 163 341 304 182 194 228 196 175 139 290
342 346 352 353 1 355 353 356 9 16 29 48 40 21 346 6 9 99 193 257 48 320 251 235 320 296 280 195 298 275 263 259 265 292 272 352 116 86 257 338 100 5 200 209 194 165 153
342 348 351 2 355 350 358 358 9 26 37 51 36 22 0 288 61 176 348 344 282 321 282 299 317 233 306 314 307 271 251 252 246 260 196 153 90 84 184 21 188 239 305 246 230 162 223
338 346 343 347 352 356 357 359 5 25 29 40 34 43 33 291 269 292 245 272 305 310 236 260 290 301 315 316 10 22 335 312 240 225 207 175 128 111 151 183 278 273 46 71 90 293 14
331 336 340 341 349 351 357 358 2 16 19 34 20 32 358 129 247 252 296 268 272 321 328 275 298 314 337 74 61 159 212 217 247 197 80 75 80 126 138 161 197 238 315 359 176 293 353
321 328 334 337 344 346 351 354 360 7 358 302 276 336 318 270 259 218 228 228 228 149 241 303 328 327 3 41 95 175 241 238 231 181 176 79 17 163 160 212 283 307 309 315 113 233 167
327 329 331 336 336 350 353 353 355 1 4 278 270 281 299 276 274 247 241 232 219 229 150 325 352 345 2 67 125 267 204 299 17 339 184 176 146 187 86 114 264 6 312 193 256 138 150
322 323 328 341 346 348 348 350 352 354 356 342 254 270 279 281 272 272 268 251 241 243 275 312 274 265 337 84 76 212 338 2 145 232 354 257 182 194 181 216 300 310 274 296 293 288 172